Weather History for Omaha, NE

Change the Weather History Date:

Thursday, July 4, 2013

  Actual Average Record
Temperature  
Mean Temperature 74 °F 76 °F  
Max Temperature 87 °F 87 °F 110 °F (1936)
Min Temperature 61 °F 66 °F 48 °F (1967)
Degree Days  
Heating Degree Days 0 0  
Month to date heating degree days 0 0  
Since 1 June heating degree days 16 17  
Since 1 July heating degree days 0 0  
Cooling Degree Days 9 11  
Month to date cooling degree days 27 44  
Year to date cooling degree days 358 356  
Since 1 June cooling degree days 262 274  
Growing Degree Days 24 (Base 50)    
Moisture  
Dew Point 56 °F    
Average Humidity 55    
Maximum Humidity 78    
Minimum Humidity 31    
Precipitation  
Precipitation 0.00 in 0.13 in 2.74 in (2010)
Month to date precipitation T 0.49  
Year to date precipitation 19.08 15.95  
Snow  
Snow 0.00 in 0.00 in - ()
Month to date snowfall 0.0 0.0  
Since 1 July snowfall 0.0 0.0  
Snow Depth 0.00 in    
Sea Level Pressure  
Sea Level Pressure 29.94 in    
Wind  
Wind Speed 12 mph (SSE)    
Max Wind Speed 24 mph    
Max Gust Speed 29 mph    
Visibility 10 miles    
Events      
T = Trace of Precipitation, MM = Missing Value Source: NWS Daily Summary

Daily Weather History Graph

Daily Weather History Graph

Search for Another Location

Airport:

Trip Planner

Search our weather history database for the weather conditions in past years. The results will help you decide how hot, cold, wet, or windy it might be!

Date:

Astronomy

Jul. 04, 2013 Rise Set
Actual Time 5:55 AM CDT 8:59 PM CDT
Civil Twilight 5:22 AM CDT 9:33 PM CDT
Nautical Twilight 4:39 AM CDT 10:16 PM CDT
Astronomical Twilight 3:49 AM CDT 11:06 PM CDT
Moon 3:14 AM CDT (7/4) 6:04 PM CDT (7/4)
Length of Visible Light 16h 11m
Length of Day
15h 04m
Waning Crescent, 11% of the Moon is Illuminated
Jul 4
Waning Crescent
Jul 8
New
Jul 15
First Quarter
Jul 22
Full
Jul 29
Last Quarter

Hourly Weather History & Observations

Time (CDT) Temp. Heat Index Dew Point Humidity Pressure Visibility Wind Dir Wind Speed Gust Speed Precip Events Conditions
12:52 AM 68.0 °F - 57.0 °F 68% 29.97 in 10.0 mi SSE 8.1 mph - N/A   Clear
1:52 AM 66.0 °F - 57.0 °F 73% 29.97 in 10.0 mi SSE 6.9 mph - N/A   Clear
2:52 AM 66.0 °F - 55.0 °F 68% 29.97 in 10.0 mi SSE 8.1 mph - N/A   Clear
3:52 AM 64.0 °F - 55.0 °F 73% 29.97 in 10.0 mi SSE 8.1 mph - N/A   Clear
4:52 AM 63.0 °F - 55.0 °F 75% 29.98 in 10.0 mi SSE 8.1 mph - N/A   Clear
5:52 AM 62.1 °F - 54.0 °F 75% 29.98 in 10.0 mi SSE 6.9 mph - N/A   Clear
6:52 AM 63.0 °F - 55.9 °F 78% 29.99 in 10.0 mi SE 6.9 mph - N/A   Clear
7:52 AM 66.0 °F - 55.9 °F 70% 29.99 in 10.0 mi SSE 9.2 mph - N/A   Clear
8:52 AM 69.1 °F - 55.9 °F 63% 29.99 in 10.0 mi SSE 9.2 mph - N/A   Clear
9:52 AM 73.0 °F - 57.0 °F 57% 29.98 in 10.0 mi South 10.4 mph - N/A   Clear
10:52 AM 77.0 °F - 57.9 °F 52% 29.97 in 10.0 mi South 11.5 mph - N/A   Partly Cloudy
11:52 AM 80.1 °F 80.6 °F 57.9 °F 47% 29.97 in 10.0 mi South 13.8 mph - N/A   Scattered Clouds
12:52 PM 82.0 °F 82.0 °F 57.9 °F 44% 29.96 in 10.0 mi South 15.0 mph - N/A   Scattered Clouds
1:52 PM 84.9 °F 84.2 °F 57.9 °F 40% 29.94 in 10.0 mi South 16.1 mph 24.2 mph N/A   Scattered Clouds
2:52 PM 86.0 °F 84.7 °F 55.9 °F 36% 29.92 in 10.0 mi South 18.4 mph - N/A   Partly Cloudy
3:52 PM 87.1 °F 85.3 °F 55.0 °F 33% 29.92 in 10.0 mi South 19.6 mph 23.0 mph N/A   Partly Cloudy
4:52 PM 87.1 °F 84.9 °F 53.1 °F 31% 29.91 in 10.0 mi South 18.4 mph 28.8 mph N/A   Partly Cloudy
5:52 PM 86.0 °F 84.2 °F 54.0 °F 33% 29.89 in 10.0 mi SSE 17.3 mph - N/A   Partly Cloudy
6:52 PM 84.9 °F 83.6 °F 55.0 °F 36% 29.89 in 10.0 mi SSE 15.0 mph - N/A   Partly Cloudy
7:52 PM 82.9 °F 82.1 °F 55.9 °F 39% 29.88 in 10.0 mi SSE 13.8 mph - N/A   Scattered Clouds
8:52 PM 79.0 °F - 57.0 °F 47% 29.88 in 10.0 mi SSE 13.8 mph - N/A   Scattered Clouds
9:52 PM 77.0 °F - 57.0 °F 50% 29.89 in 10.0 mi SSE 12.7 mph - N/A   Scattered Clouds
10:52 PM 75.0 °F - 57.0 °F 53% 29.89 in 10.0 mi SSE 11.5 mph - N/A   Partly Cloudy
11:52 PM 73.0 °F - 57.0 °F 57% 29.90 in 10.0 mi SSE 10.4 mph - N/A   Scattered Clouds